Volver al catálogo

STARLINK-35552

ActivoComunicacionesVLEO
NORAD 66058·PAYLOAD·🇺🇸 United States

Lanzado Oct 19, 2025 desde Cape Canaveral Space Force Station

Loading…

Próximos Pases (próximas 24 horas)

TLE

ActualizadoSource: CelesTrak SupGP

Época: Sep 14, 2026, 15:02 UTC

1 66058C 25235A   26257.62687500 -.00028572  00000+0 -84397-3 0  2574
2 66058  53.1586  80.9916 0001229  85.4820 224.8252 15.34412339    10

Sigue STARLINK-35552 en tiempo real con AllMySat

Download on the App Store